Startseite
Über Mich
AHP4
Galerie
Sehschlangen
Tourenbuch
Bookmarks
Elektronik
Bewertung
Geschichten
[Tagesmessung] [Jahreswerte] [Information]

Messwerte vom 20.02.2022

Die letzten Messwerte von 23:58:48 Uhr:
KategorieMesswert
Temperatur [°C]9
Luftdruck [mBar]973
Sonneneinstrahlung0
Wind [km/h]0 aus Südwest
Niederschlag [l/m²]0
rel.Luftfeucht.96.6%
CO2 [ppm]697

Diagramme
Messwerte vom 20.02.2022
Tagesaggregation
KategorieMinimumMaximumSchnittSumme
Temperatur [°C]395.6188
Luftdruck [mBar]973993986.3292
Sonneneinstrahlung21271.4438
Wind [km/h]86
rF [%]92.996.696.52
Niederschlag [l/m²]10.5575
CO2 [ppm]406773660.6
Einordnung alsKalter Tag

Messungen an benachbarten Tagen: Zur Jahresaggregation 2022
Tabelle aller Messwerte
UhrzeitTemperatur [°C]Luftdruck [mBar]SonneWind [km/h]RichtungRegen [l/m²]rF [%]CO2 [ppm]
00:01:44 3 991 0 0 O 0 93 615
00:04:49 3 991 0 0 SW 0 92.9 621
00:07:48 3 991 0 0 SO 0 93.2 630
00:10:48 3 991 0 0 SO 0 93.9 641
00:13:47 3 991 0 0 SO 0 94.5 654
00:16:46 3 991 0 0 SO 0 94.7 656
00:19:48 3 991 0 0 O 0 95.1 663
00:22:49 3 991 0 0 SO 0 95.6 664
00:25:47 3 991 0 0 SW 0 95.5 661
00:28:46 3 991 0 0 S 0 96 656
00:31:48 3 990 0 0 SO 0 96.2 650
00:34:48 3 991 0 0 SO 0 96.3 648
00:37:47 3 990 0 0 S 0 96.3 648
00:40:48 3 990 0 0 SO 0 96.5 658
00:43:47 3 990 0 0 S 0.2575 96.6 661
00:46:47 3 991 0 0 SO 0 96.6 671
00:49:48 3 990 0 0 SO 0 96.6 674
00:52:45 3 990 0 0 O 0 96.6 670
00:55:46 3 990 0 0 S 0.2575 96.6 665
00:58:47 3 990 0 86 S 0 96.6 659
01:01:49 3 989 0 0 SO 0 96.6 661
01:04:46 3 989 0 0 S 0 96.6 661
01:07:46 3 990 0 0 SO 0 96.6 664
01:10:50 3 989 0 0 SO 0 96.6 656
01:13:47 3 989 0 0 O 0 96.6 662
01:16:47 3 988 0 0 S 0 96.6 662
01:19:47 3 989 0 0 S 0 96.6 671
01:22:47 3 989 0 0 W 0 96.6 665
01:25:49 3 988 0 0 S 0 96.6 668
01:28:47 3 989 0 0 SO 0 96.6 659
01:31:48 3 988 0 0 SO 0 96.6 659
01:34:47 3 988 0 0 SO 0.2575 96.6 662
01:37:48 3 988 0 0 W 0 96.6 666
01:40:52 3 988 0 0 SW 0 96.6 663
01:43:47 3 988 0 0 O 0.2575 96.6 659
01:46:50 3 989 0 0 SW 0 96.6 662
01:49:46 3 988 0 0 S 0.2575 96.6 659
01:52:49 3 988 0 0 SW 0 96.6 662
01:55:46 3 988 0 0 S 0.2575 96.6 665
01:58:46 3 987 0 0 W 0 96.6 670
02:01:46 3 988 0 0 S 0 96.6 668
02:04:49 3 988 0 0 SW 0 96.6 677
02:07:48 3 988 0 0 S 0.2575 96.6 679
02:10:47 3 988 0 0 NW 0 96.6 674
02:13:45 3 988 0 0 S 0 96.6 674
02:16:47 3 988 0 0 SW 0 96.6 671
02:19:47 3 988 0 0 S 0.2575 96.6 683
02:22:47 3 988 0 0 SW 0 96.6 697
02:25:48 3 989 0 0 SW 0 96.6 700
02:28:46 3 988 0 0 S 0 96.6 689
02:31:49 3 988 0 0 SW 0 96.6 689
02:34:46 3 987 0 0 S 0 96.6 683
02:37:46 3 987 0 0 SO 0 96.6 688
02:40:49 3 988 0 0 S 0.2575 96.6 685
02:43:47 3 988 0 0 W 0 96.6 689
02:46:47 3 988 0 0 W 0 96.6 701
02:49:46 3 988 0 0 S 0.2575 96.6 705
02:52:48 3 988 0 0 SW 0 96.6 707
02:55:46 3 988 0 0 W 0 96.6 706
02:58:47 3 988 0 0 SW 0 96.6 715
03:01:49 3 988 0 0 NO 0 96.6 721
03:04:47 3 988 0 0 W 0 96.6 720
03:07:49 3 988 0 0 SW 0 96.6 720
03:10:44 3 988 0 0 S 0 96.6 711
03:13:47 3 988 0 0 SO 0 96.6 700
03:16:48 3 988 0 0 W 0 96.6 702
03:19:45 3 988 0 0 SW 0 96.6 721
03:22:48 3 987 0 0 O 0 96.6 732
03:25:47 3 988 0 0 S 0 96.6 745
03:28:48 3 988 0 0 SW 0 96.6 741
03:31:47 3 988 0 0 S 0 96.6 735
03:34:50 3 988 0 0 SW 0 96.6 733
03:37:47 3 988 0 0 SO 0 96.6 730
03:40:46 3 988 0 0 N 0 96.6 734
03:43:47 3 988 0 0 O 0 96.6 730
03:46:48 3 988 0 0 SW 0 96.6 730
03:49:46 3 987 0 0 SO 0 96.6 726
03:52:46 3 988 0 0 S 0 96.6 727
03:55:46 3 989 0 0 S 0 96.6 720
03:58:47 3 989 0 0 S 0 96.6 719
04:01:49 3 988 0 0 SO 0 96.6 722
04:04:47 3 988 0 0 NW 0 96.6 729
04:07:47 3 989 0 0 O 0 96.6 732
04:10:47 3 989 0 0 SW 0.2575 96.6 727
04:13:46 3 988 0 0 SO 0 96.6 718
04:16:48 3 988 0 0 NW 0 96.6 721
04:19:45 3 988 0 0 W 0 96.6 718
04:22:46 3 989 0 0 SW 0 96.6 721
04:25:47 3 989 0 0 S 0 96.6 714
04:28:47 3 989 0 0 SW 0 96.6 713
04:31:47 4 989 0 0 SO 0 96.6 720
04:34:46 4 989 0 0 NO 0 96.6 718
04:37:48 4 990 0 0 NW 0 96.6 718
04:40:47 4 990 0 0 SW 0 96.6 725
04:43:46 4 989 0 0 S 0 96.6 729
04:46:48 4 990 0 0 SW 0 96.6 721
04:49:49 4 989 0 0 SW 0 96.6 719
04:52:45 4 990 0 0 W 0 96.6 717
04:55:46 4 990 0 0 SW 0 96.6 714
04:58:47 4 990 0 0 W 0 96.6 716
05:01:48 4 990 0 0 NW 0 96.6 721
05:04:48 4 991 0 0 NW 0 96.6 720
05:07:47 4 990 0 0 W 0 96.6 728
05:10:52 4 990 0 0 W 0 96.6 726
05:13:47 4 991 0 0 SW 0 96.6 724
05:16:49 4 991 0 0 NW 0 96.6 723
05:19:46 4 991 0 0 W 0 96.6 726
05:22:45 4 991 0 0 W 0 96.6 726
05:25:45 4 991 0 0 SO 0 96.6 725
05:28:47 4 991 0 0 NW 0 96.6 729
05:31:46 4 991 0 0 NW 0 96.6 733
05:34:45 4 991 0 0 W 0 96.6 741
05:37:47 4 991 0 0 SW 0 96.6 734
05:40:47 4 991 0 0 S 0 96.6 735
05:43:47 4 991 0 0 W 0 96.6 724
05:46:46 4 991 0 0 SW 0 96.6 721
05:49:50 4 991 0 0 SW 0 96.6 724
05:52:45 4 991 0 0 W 0 96.6 726
05:55:46 4 991 0 0 W 0.2575 96.6 727
05:58:46 4 991 0 0 SW 0 96.6 724
06:01:45 4 991 0 0 W 0 96.6 721
06:04:47 4 991 0 0 SW 0 96.6 718
06:07:48 4 991 0 0 SW 0 96.6 726
06:10:47 4 991 0 0 NW 0 96.6 727
06:13:49 4 991 0 0 NW 0 96.6 728
06:16:48 4 991 0 0 W 0 96.6 724
06:19:48 4 991 0 0 W 0 96.6 712
06:22:47 4 991 0 0 W 0 96.6 712
06:25:49 4 991 0 0 W 0 96.6 715
06:28:46 4 991 0 0 W 0 96.6 714
06:31:47 4 991 0 0 NW 0 96.6 717
06:34:44 4 991 0 0 W 0 96.6 715
06:37:47 4 991 0 0 NW 0 96.6 710
06:40:46 4 991 0 0 W 0 96.6 708
06:43:48 4 991 0 0 NW 0 96.6 711
06:46:48 4 991 0 0 NW 0 96.6 715
06:49:45 4 991 0 0 S 0 96.6 717
06:52:45 4 991 0 0 W 0 96.6 705
06:55:45 4 991 0 0 O 0 96.6 699
06:58:47 3 991 0 0 SW 0 96.6 708
07:01:47 3 991 3 0 S 0 96.6 720
07:04:46 3 991 5 0 S 0 96.6 718
07:07:46 3 991 7 0 W 0 96.6 711
07:10:46 3 991 10 0 W 0 96.6 703
07:13:48 3 991 11 0 NW 0 96.6 700
07:16:49 3 992 23 0 W 0 96.6 698
07:19:49 3 992 29 0 NW 0 96.6 708
07:22:47 3 991 32 0 NW 0 96.6 715
07:25:46 3 992 50 0 S 0 96.6 712
07:28:47 3 991 59 0 W 0 96.6 710
07:31:47 3 992 66 0 W 0 96.6 712
07:34:47 3 992 70 0 O 0 96.6 713
07:37:48 3 992 74 0 SW 0 96.6 715
07:40:47 3 992 79 0 W 0 96.6 712
07:43:49 3 992 87 0 S 0 96.6 706
07:46:48 3 992 84 0 N 0 96.6 706
07:49:48 3 992 97 0 S 0 96.6 707
07:52:47 3 992 103 0 SW 0 96.6 711
07:55:49 3 992 116 0 SW 0 96.6 713
07:58:47 3 991 119 0 SW 0 96.6 718
08:01:49 3 992 119 0 NW 0 96.6 726
08:04:48 3 992 108 0 W 0 96.6 725
08:07:46 3 992 112 0 S 0 96.6 719
08:10:46 3 992 100 0 S 0 96.6 718
08:13:48 3 992 98 0 SW 0 96.6 714
08:16:47 3 992 117 0 W 0 96.6 718
08:19:46 3 992 106 0 SO 0 96.6 720
08:22:49 3 992 110 0 SW 0 96.6 721
08:25:50 3 992 101 0 NW 0 96.6 725
08:28:48 3 992 146 0 S 0 96.6 723
08:31:49 3 992 164 0 S 0 96.6 723
08:34:49 4 992 173 0 S 0 96.6 738
08:37:47 4 992 181 0 S 0 96.6 751
08:40:47 4 992 172 0 SW 0 96.6 752
08:43:49 4 992 179 0 SW 0 96.6 743
08:46:47 4 991 179 0 O 0 96.6 747
08:49:49 4 991 113 0 S 0 96.6 689
08:52:49 4 992 120 0 SW 0 96.6 406
08:55:48 4 992 97 0 S 0 96.6 466
08:58:48 4 992 165 0 NW 0 96.6 471
09:01:47 4 992 170 0 S 0 96.6 472
09:04:49 4 992 182 0 SO 0 96.6 497
09:07:48 4 992 184 0 SW 0 96.6 478
09:10:48 4 992 187 0 SW 0 96.6 475
09:13:47 4 992 187 0 N 0 96.6 466
09:16:46 4 992 179 0 O 0 96.6 475
09:19:48 4 993 188 0 NW 0 96.6 474
09:22:48 4 992 187 0 S 0 96.6 475
09:25:46 4 992 187 0 S 0 96.6 475
09:28:47 4 991 195 0 S 0 96.6 513
09:31:49 4 993 192 0 SW 0 96.6 515
09:34:48 4 991 188 0 S 0 96.6 519
09:37:49 4 992 191 0 SW 0 96.6 521
09:40:47 4 992 189 0 S 0 96.6 532
09:43:47 4 992 192 0 S 0 96.6 528
09:46:46 4 991 194 0 S 0 96.6 527
09:49:47 4 992 196 0 S 0 96.6 531
09:52:46 4 991 196 0 SW 0 96.1 553
09:55:46 4 991 194 0 W 0 95.7 556
10:00:34 4 991 190 0 W 0 94.7 557
10:02:20 4 991 189 0 NW 0 95.1 556
10:04:48 4 991 191 0 W 0 95.2 568
10:07:48 4 991 198 0 SW 0 95.4 593
10:10:46 5 991 202 0 N 0 95.6 598
10:13:48 5 992 204 0 SW 0 95.5 600
10:16:50 5 991 203 0 SO 0 95.2 598
10:19:46 5 991 199 0 W 0 95.3 601
10:22:46 5 991 196 0 SW 0 95.7 609
10:25:47 4 991 194 0 SW 0 96.2 612
10:28:50 4 991 193 0 SO 0 96.6 615
10:31:49 4 991 189 0 SW 0 96.6 615
10:34:48 4 991 186 0 S 0 96.6 621
10:37:48 4 991 190 0 S 0.2575 96.6 618
10:40:49 4 991 188 0 SW 0 96.6 624
10:43:50 4 991 187 0 SW 0 96.6 630
10:46:47 4 991 191 0 SW 0 96.6 632
10:49:47 4 991 197 0 SW 0 96.6 641
10:52:48 4 990 195 0 S 0.2575 96.6 651
10:55:48 4 991 194 0 SO 0 96.6 659
10:58:46 4 990 198 0 W 0 96.6 661
11:01:46 4 991 199 0 S 0 96.6 662
11:04:50 4 990 199 0 SO 0 96.6 664
11:07:48 4 990 201 0 S 0 96.6 668
11:10:46 4 990 203 0 S 0 96.6 673
11:13:48 5 990 199 0 S 0 96.6 671
11:16:50 5 991 196 0 SO 0.2575 96.6 673
11:19:48 5 990 193 0 S 0 96.6 679
11:22:48 5 990 197 0 S 0 96.6 689
11:25:47 5 990 196 0 S 0 96.6 703
11:28:47 5 989 196 0 SW 0 96.6 697
11:31:47 5 989 193 0 S 0 96.6 700
11:34:47 5 990 192 0 S 0.2575 96.6 700
11:37:48 5 990 204 0 SO 0 96.6 702
11:40:48 5 990 200 0 S 0 96.6 700
11:43:47 5 989 202 0 S 0 96.6 708
11:46:49 5 989 203 0 S 0 96.6 719
11:49:50 5 989 198 0 SO 0.2575 96.6 735
11:52:48 5 989 200 0 SW 0 96.6 735
11:55:48 5 989 199 0 SW 0 96.6 737
11:58:47 5 988 201 0 S 0 96.6 725
12:01:50 5 989 200 0 SO 0.2575 96.6 732
12:04:51 5 988 200 0 S 0 96.6 727
12:07:47 5 988 206 0 SW 0 96.6 736
12:10:47 5 988 210 0 S 0 96.6 726
12:13:47 6 988 203 0 S 0 96.6 732
12:16:48 6 988 208 0 S 0.2575 96.6 738
12:19:49 6 988 211 0 SO 0 96.6 738
12:22:46 6 988 212 0 SW 0 96.6 738
12:25:48 6 988 208 0 NW 0 96.6 738
12:28:48 6 988 203 0 SW 0 96.6 739
12:31:49 6 988 206 0 SW 0.2575 96.6 737
12:34:47 6 987 209 0 S 0 96.6 724
12:37:47 6 988 207 0 S 0 96.6 729
12:40:49 6 987 206 0 NO 0 96.6 731
12:43:49 6 988 204 0 SO 0.2575 96.6 735
12:46:50 6 988 203 0 SW 0 96.6 730
12:49:48 6 987 209 0 NW 0 96.6 735
12:52:47 6 987 211 0 S 0 96.6 732
12:55:50 6 988 208 0 SO 0 96.6 732
12:58:48 6 987 206 0 S 0 96.6 729
13:01:46 6 987 204 0 S 0 96.6 732
13:04:48 6 987 196 0 SW 0 96.6 732
13:07:47 6 987 189 0 W 0.2575 96.6 729
13:10:49 6 987 183 0 W 0 96.6 723
13:13:47 6 987 183 0 S 0 96.6 728
13:16:47 6 987 191 0 S 0 96.6 735
13:19:48 6 987 188 0 SW 0 96.6 736
13:22:47 6 987 194 0 S 0 96.6 734
13:25:47 7 987 191 0 W 0 96.6 734
13:28:47 7 987 192 0 NW 0.2575 96.6 725
13:31:47 7 987 189 0 S 0 96.6 723
13:34:48 7 987 189 0 SW 0 96.6 731
13:37:48 7 987 187 0 SW 0 96.6 737
13:40:46 7 987 186 0 SO 0 96.6 742
13:43:45 7 987 193 0 W 0.2575 96.6 747
13:46:47 7 987 187 0 S 0 96.6 750
13:49:47 7 987 185 0 N 0 96.6 744
13:52:48 7 987 185 0 NW 0 96.6 746
13:55:46 7 987 199 0 S 0.2575 96.6 743
13:58:49 7 987 188 0 SW 0 96.6 750
14:01:46 7 987 195 0 W 0 96.6 747
14:04:46 7 987 199 0 S 0 96.6 749
14:07:49 7 987 198 0 NW 0 96.6 755
14:10:47 7 987 193 0 SW 0 96.6 766
14:13:46 7 987 200 0 SW 0 96.6 773
14:16:46 7 987 191 0 SW 0 96.6 764
14:19:47 7 987 193 0 W 0 96.6 765
14:22:46 7 987 203 0 SW 0 96.6 764
14:25:49 7 986 201 0 SO 0 96.6 764
14:28:47 7 987 198 0 S 0 96.6 759
14:31:46 7 987 197 0 S 0 96.6 763
14:34:48 8 986 196 0 W 0 96.6 756
14:37:46 8 986 205 0 S 0 96.6 757
14:40:49 8 986 205 0 SW 0 96.6 749
14:43:47 8 986 201 0 S 0 96.6 748
14:46:47 8 986 197 0 SW 0 96.6 731
14:49:48 8 986 181 0 SW 0 96.6 743
14:52:46 8 987 181 0 W 0 96.6 741
14:55:47 8 986 176 0 S 0 96.6 738
14:58:47 8 986 184 0 S 0 96.6 732
15:01:48 8 985 190 0 O 0 96.6 720
15:04:51 8 986 187 0 SW 0 96.6 723
15:07:49 8 986 188 0 SW 0 96.6 720
15:10:48 8 986 189 0 SO 0 96.6 715
15:13:46 8 986 187 0 S 0 96.6 715
15:16:46 8 986 174 0 S 0 96.6 717
15:19:48 8 985 163 0 W 0 96.6 707
15:22:48 8 985 175 0 NW 0 96.6 701
15:25:46 8 986 170 0 S 0 96.6 702
15:28:46 8 985 165 0 O 0 96.6 693
15:31:45 8 986 153 0 0 96.6 688
15:34:49 8 986 175 0 SO 0 96.6 682
15:37:46 8 985 171 0 W 0 96.6 679
15:40:48 8 986 167 0 SW 0 96.6 674
15:43:48 8 984 162 0 SW 0 96.6 670
15:46:48 8 984 159 0 W 0 96.6 671
15:49:49 8 985 161 0 SW 0 96.6 670
15:52:47 8 985 157 0 SW 0 96.6 662
15:55:49 8 985 153 0 SO 0 96.6 665
15:58:49 8 985 157 0 SO 0 96.6 664
16:01:49 8 984 162 0 SW 0 96.6 658
16:04:47 8 984 159 0 SW 0 96.6 647
16:07:47 8 984 148 0 NO 0.2575 96.6 644
16:10:46 8 984 151 0 SW 0 96.6 641
16:13:46 8 984 164 0 S 0 96.6 633
16:16:46 8 984 166 0 S 0 96.6 635
16:19:46 8 985 170 0 O 0 96.6 636
16:22:50 8 984 174 0 SW 0 96.6 635
16:25:48 8 984 168 0 NW 0 96.6 630
16:28:49 8 984 160 0 S 0 96.6 632
16:31:49 8 984 156 0 SW 0 96.6 629
16:34:46 8 984 151 0 W 0 96.6 624
16:37:49 8 984 151 0 SO 0 96.6 622
16:40:46 8 984 145 0 SW 0 96.6 616
16:43:47 8 984 143 0 SW 0 96.6 620
16:46:47 8 984 140 0 N 0 96.6 618
16:49:46 8 984 133 0 N 0 96.6 615
16:52:49 8 984 123 0 S 0 96.6 608
16:55:47 8 984 104 0 SW 0 96.6 606
16:58:48 8 984 99 0 SW 0 96.6 600
17:01:49 8 984 89 0 SO 0 96.6 605
17:04:47 8 984 84 0 NW 0 96.6 604
17:07:52 8 983 73 0 SW 0 96.6 608
17:10:54 8 984 64 0 NW 0 96.6 594
17:13:49 8 984 54 0 SW 0 96.6 592
17:16:48 8 984 41 0 SO 0 96.6 583
17:19:48 8 984 38 0 W 0 96.6 592
17:22:48 8 984 36 0 S 0 96.6 595
17:25:45 8 984 37 0 O 0 96.6 594
17:28:49 8 984 29 0 SW 0 96.6 590
17:31:49 8 984 26 0 SO 0 96.6 583
17:34:49 8 984 23 0 SW 0 96.6 587
17:37:46 8 984 22 0 SO 0 96.6 588
17:40:48 8 984 22 0 W 0.2575 96.6 584
17:43:47 8 984 17 0 SO 0 96.6 580
17:46:46 8 984 14 0 S 0 96.6 574
17:49:45 8 984 10 0 W 0 96.6 574
17:52:46 8 984 6 0 SW 0 96.6 568
17:55:45 8 983 5 0 W 0 96.6 568
17:58:46 8 984 3 0 O 0 96.6 562
18:01:49 8 983 0 0 SW 0.2575 96.6 557
18:04:47 8 984 0 0 SW 0 96.6 560
18:07:47 8 983 0 0 S 0 96.6 557
18:10:47 8 983 0 0 S 0 96.6 554
18:13:47 8 984 0 0 W 0 96.6 550
18:16:44 8 984 0 0 O 0 96.6 556
18:19:45 8 983 0 0 W 0 96.6 551
18:22:45 8 984 0 0 W 0 96.6 547
18:25:45 8 984 0 0 S 0.2575 96.6 544
18:28:48 8 983 0 0 SW 0 96.6 551
18:31:47 8 983 0 0 NW 0 96.6 553
18:34:44 8 984 0 0 O 0 96.6 553
18:37:45 8 984 0 0 S 0 96.6 547
18:40:46 8 983 0 0 S 0 96.6 545
18:43:48 8 983 0 0 NW 0 96.6 536
18:46:47 8 983 0 0 S 0 96.6 538
18:49:48 8 983 0 0 SW 0.2575 96.6 536
18:52:47 8 983 0 0 S 0 96.6 537
18:55:45 8 983 0 0 S 0 96.6 530
18:58:46 8 983 0 0 O 0 96.6 527
19:01:46 8 983 0 0 O 0 96.6 539
19:04:45 8 982 0 0 S 0.2575 96.6 537
19:07:47 8 983 0 0 SW 0 96.6 542
19:10:48 8 982 0 0 SO 0 96.6 533
19:13:47 8 982 0 0 SW 0 96.6 528
19:16:47 8 982 0 0 SW 0 96.6 527
19:19:44 8 983 0 0 SW 0 96.6 521
19:22:46 8 983 0 0 W 0 96.6 518
19:25:47 8 982 0 0 S 0 96.6 521
19:28:46 8 982 0 0 SO 0 96.6 524
19:31:45 8 982 0 0 S 0.2575 96.6 529
19:34:47 8 982 0 0 SW 0 96.6 524
19:37:43 8 981 0 0 0 96.6 521
19:40:46 8 982 0 0 SW 0 96.6 521
19:43:45 8 981 0 0 S 0 96.6 533
19:46:45 8 981 0 0 NO 0 96.6 542
19:49:47 8 980 0 0 SW 0 96.6 542
19:52:46 8 981 0 0 SW 0 96.6 542
19:55:45 8 981 0 0 SW 0 96.6 545
19:58:47 8 980 0 0 SO 0 96.6 542
20:01:47 8 981 0 0 SW 0.2575 96.6 544
20:04:49 8 981 0 0 SW 0 96.6 550
20:07:45 8 980 0 0 S 0 96.6 560
20:10:49 8 980 0 0 NW 0 96.6 562
20:13:46 8 980 0 0 SO 0 96.6 571
20:16:46 8 980 0 0 S 0 96.6 568
20:19:46 8 980 0 0 SW 0 96.6 568
20:22:47 8 980 0 0 SW 0 96.6 570
20:25:46 8 980 0 0 SO 0 96.6 579
20:28:47 8 980 0 0 S 0 96.6 582
20:31:44 8 980 0 0 N 0 96.6 579
20:34:46 8 980 0 0 S 0 96.6 578
20:37:47 8 980 0 0 NO 0 96.6 579
20:40:46 8 980 0 0 S 0 96.6 583
20:43:45 8 980 0 0 S 0.2575 96.6 585
20:46:47 8 980 0 0 SW 0 96.6 597
20:49:48 8 980 0 0 S 0 96.6 603
20:52:47 8 980 0 0 SO 0 96.6 615
20:55:46 8 980 0 0 N 0 96.6 615
20:58:46 8 980 0 0 SW 0 96.6 621
21:01:47 8 980 0 0 S 0 96.6 623
21:04:50 8 980 0 0 NO 0 96.6 615
21:07:46 8 979 0 0 S 0 96.6 621
21:10:46 8 980 0 0 O 0 96.6 621
21:13:46 8 980 0 0 SO 0 96.6 631
21:16:46 8 980 0 0 SW 0.2575 96.6 625
21:19:46 8 979 0 0 W 0 96.6 630
21:22:47 8 979 0 0 SW 0 96.6 626
21:25:48 8 979 0 0 NW 0 96.6 632
21:28:46 8 979 0 0 W 0 96.6 638
21:31:47 8 979 0 0 S 0 96.6 639
21:34:46 8 979 0 0 SW 0 96.6 642
21:37:46 8 979 0 0 SW 0 96.6 633
21:40:46 8 978 0 0 W 0.2575 96.6 638
21:43:44 8 978 0 0 S 0 96.6 641
21:46:45 8 978 0 0 S 0 96.6 641
21:49:46 8 978 0 0 NW 0 96.6 633
21:52:46 8 977 0 0 SW 0 96.6 635
21:55:47 8 977 0 0 SW 0 96.6 642
21:58:47 8 977 0 0 NO 0 96.6 636
22:01:46 8 977 0 0 SW 0 96.6 638
22:04:47 8 976 0 0 S 0 96.6 641
22:07:48 8 977 0 0 SW 0.2575 96.6 635
22:10:50 8 977 0 0 S 0 96.6 636
22:13:46 8 977 0 0 NW 0 96.6 638
22:16:46 8 977 0 0 S 0 96.6 646
22:19:45 8 977 0 0 S 0 96.6 644
22:22:47 8 976 0 0 SW 0 96.6 642
22:25:48 8 977 0 0 SO 0.2575 96.6 638
22:29:04 8 976 0 0 O 0 96.6 636
22:31:48 8 976 0 0 S 0 96.6 658
22:34:46 8 976 0 0 W 0 96.6 657
22:37:46 8 976 0 0 W 0 96.6 667
22:40:45 8 976 0 0 S 0 96.6 670
22:43:48 8 976 0 0 SO 0.2575 96.6 671
22:46:48 8 976 0 0 SW 0 96.6 656
22:49:48 8 976 0 0 SO 0 96.6 662
22:52:47 8 976 0 0 S 0 96.6 670
22:55:45 8 976 0 0 S 0 96.6 674
22:58:46 8 976 0 0 SO 0 96.6 674
23:01:46 8 976 0 0 S 0 96.6 668
23:04:48 8 976 0 0 SW 0.2575 96.6 665
23:07:48 8 976 0 0 S 0 96.6 668
23:10:46 8 976 0 0 S 0 96.6 681
23:13:48 8 976 0 0 NW 0 96.6 671
23:16:46 8 976 0 0 NO 0 96.6 673
23:19:49 8 976 0 0 SW 0 96.6 664
23:22:48 8 975 0 0 SW 0 96.6 665
23:25:45 8 976 0 0 W 0.2575 96.6 665
23:28:47 8 976 0 0 SW 0 96.6 665
23:31:46 8 976 0 0 N 0 96.6 669
23:34:47 8 975 0 0 SW 0 96.6 676
23:37:46 8 975 0 0 SO 0 96.6 677
23:40:46 8 975 0 0 SW 0 96.6 685
23:43:46 8 974 0 0 W 0 96.6 691
23:46:47 8 974 0 0 SO 0 96.6 694
23:49:46 8 974 0 0 S 0 96.6 688
23:52:45 8 974 0 0 SO 0 96.6 691
23:55:48 8 974 0 0 S 0 96.6 692
23:58:48 9 973 0 0 SW 0 96.6 697

Letzte Änderung : 04-Jan-2022
Copyright Jens Köhler, Wolfsburg, Obere Dorfstraße 10d